Time[GMT],significant_wave_height[m](0m),dominant_wave_period[s](0m),max_wave_height[m](0m),mean_wave_direction[degrees](0m),mean_wave_direction_spread[degrees](0m)
2019-08-23 18:00, 0.82,3.6,1.38,75.60,34.00
2019-08-23 19:00, 0.71,13.3,1.19,71.60,36.00
2019-08-23 20:00, 0.74,13.3,1.30,81.60,36.00
2019-08-23 21:00, 0.78,13.3,1.16,78.60,32.00
2019-08-23 22:00, 0.77,13.3,1.25,83.60,33.00
2019-08-23 23:00, 0.80,4.9,1.29,78.60,31.00
2019-08-24 00:00, 0.79,13.3,1.33,79.60,31.00
2019-08-24 01:00, 0.80,12.5,1.36,80.60,30.00
2019-08-24 02:00, 0.81,12.5,1.33,79.60,30.00
2019-08-24 03:00, 0.85,3.4,1.28,82.60,32.00
2019-08-24 04:00, 0.84,3.9,1.37,78.60,31.00
2019-08-24 05:00, 0.83,6.1,1.33,72.60,34.00
2019-08-24 06:00, 0.84,5.9,1.22,71.60,32.00
2019-08-24 07:00, 0.78,5.6,1.24,72.60,34.00
2019-08-24 08:00, 0.77,12.5,1.11,69.60,34.00
2019-08-24 09:00, 0.71,5.4,1.25,72.60,40.00
2019-08-24 10:00, 0.71,12.5,1.08,66.60,35.00
2019-08-24 11:00, 0.68,11.8,1.05,70.60,36.00
2019-08-24 12:00, 0.70,11.8,1.36,67.60,34.00
2019-08-24 13:00, 0.63,11.8,1.03,65.60,34.00
2019-08-24 14:00, 0.69,11.8,1.00,69.60,36.00
2019-08-24 15:00, 0.68,5.9,1.00,73.60,37.00
2019-08-24 16:00, 0.66,11.1,0.97,73.60,36.00
2019-08-24 17:00, 0.62,11.8,0.95,73.60,37.00
2019-08-24 18:00, 0.63,11.8,1.02,71.60,37.00
2019-08-24 19:00, 0.64,11.8,1.17,69.60,36.00
2019-08-24 20:00, 0.64,8.7,1.31,67.60,36.00
2019-08-24 21:00, 0.67,5.3,1.14,74.60,37.00
2019-08-24 22:00, 0.61,11.8,0.93,71.60,37.00
2019-08-24 23:00, 0.64,4.7,1.07,73.60,37.00
2019-08-25 00:00, 0.65,4.3,1.10,81.60,35.00
2019-08-25 01:00, 0.67,4.5,1.08,81.60,33.00
2019-08-25 02:00, 0.63,3.6,1.10,79.60,35.00
2019-08-25 03:00, 0.70,4.2,1.20,84.60,30.00
2019-08-25 04:00, 0.67,11.8,1.06,78.60,33.00
2019-08-25 05:00, 0.63,3.1,1.21,78.60,33.00
2019-08-25 06:00, 0.67,4.2,1.17,73.60,34.00
2019-08-25 07:00, 0.66,4.4,1.04,73.60,35.00
2019-08-25 08:00, 0.70,3.2,1.27,79.60,34.00
2019-08-25 09:00, 0.70,4.1,1.08,80.60,35.00
2019-08-25 10:00, 0.74,5.0,1.22,82.60,31.00
2019-08-25 11:00, 0.72,4.7,1.26,82.60,32.00
2019-08-25 12:00, 0.80,5.0,1.42,85.60,29.00
2019-08-25 13:00, 0.81,4.3,1.20,80.60,30.00
2019-08-25 14:00, 0.81,5.3,1.37,86.60,26.00
2019-08-25 15:00, 0.77,4.8,1.27,87.60,29.00
2019-08-25 16:00, 0.71,5.6,1.15,86.60,30.00
2019-08-25 17:00, 0.69,5.4,1.19,83.60,33.00
2019-08-25 18:00, 0.65,5.7,1.05,80.60,33.00
2019-08-25 19:00, 0.66,5.6,1.27,84.60,32.00
2019-08-25 20:00, 0.66,5.6,1.14,80.60,34.00
2019-08-25 21:00, 0.56,5.4,0.89,82.60,39.00
2019-08-25 22:00, 0.50,5.1,0.90,81.60,35.00
2019-08-25 23:00, 0.53,5.6,1.00,80.60,33.00
2019-08-26 00:00, 0.48,5.9,0.82,82.60,34.00
2019-08-26 01:00, 0.51,5.9,1.10,84.60,32.00
2019-08-26 02:00, 0.54,5.6,0.96,85.60,31.00
2019-08-26 03:00, 0.50,4.9,0.88,87.60,32.00
2019-08-26 04:00, 0.59,3.1,0.99,90.60,31.00
2019-08-26 05:00, 0.62,3.6,0.91,86.60,33.00
2019-08-26 06:00, 0.60,3.9,0.97,84.60,34.00
2019-08-26 07:00, 0.60,3.2,0.94,79.60,35.00
2019-08-26 08:00, 0.59,4.3,0.87,73.60,34.00
2019-08-26 09:00, 0.61,4.8,0.96,78.60,33.00
2019-08-26 10:00, 0.63,5.3,1.09,79.60,34.00
2019-08-26 11:00, 0.63,2.9,1.16,84.60,32.00
2019-08-26 12:00, 0.61,4.8,0.97,86.60,30.00
2019-08-26 13:00, 0.64,4.4,1.17,87.60,29.00
2019-08-26 14:00, 0.70,4.8,1.22,85.60,27.00
2019-08-26 15:00, 0.66,4.8,1.05,90.60,27.00
2019-08-26 16:00, 0.61,3.1,0.97,90.60,33.00
2019-08-26 17:00, 0.63,5.0,1.09,91.60,32.00
2019-08-26 18:00, 0.61,5.6,1.19,86.60,28.00
2019-08-26 19:00, 0.61,2.7,1.10,83.60,31.00
2019-08-26 20:00, 0.60,3.2,0.98,84.60,33.00
2019-08-26 21:00, 0.53,3.6,0.84,83.60,34.00
2019-08-26 22:00, 0.51,5.1,0.84,80.60,34.00
2019-08-26 23:00, 0.49,5.6,0.81,81.60,35.00
2019-08-27 00:00, 0.48,5.1,0.74,77.60,35.00
2019-08-27 01:00, 0.59,5.4,0.89,73.60,35.00
2019-08-27 02:00, 0.58,2.8,0.94,74.60,34.00
2019-08-27 03:00, 0.65,3.4,1.07,80.60,34.00
2019-08-27 04:00, 0.60,4.0,1.05,78.60,36.00
2019-08-27 05:00, 0.56,4.4,0.93,71.60,39.00
2019-08-27 06:00, 0.53,4.7,0.85,75.60,41.00
2019-08-27 07:00, 0.52,5.0,0.97,70.60,40.00
2019-08-27 08:00, 0.52,5.1,1.02,76.60,38.00
2019-08-27 09:00, 0.54,4.9,1.05,81.60,43.00
2019-08-27 10:00, 0.53,4.8,0.92,76.60,32.00
2019-08-27 11:00, 0.54,5.1,0.89,69.60,36.00
2019-08-27 12:00, 0.48,5.4,0.82,66.60,39.00
2019-08-27 13:00, 0.49,5.0,0.92,70.60,38.00
2019-08-27 14:00, 0.53,4.7,0.87,66.60,36.00
2019-08-27 15:00, 0.53,4.5,0.82,71.60,36.00
2019-08-27 16:00, 0.57,5.1,0.88,70.60,36.00
2019-08-27 17:00, 0.59,5.4,1.03,76.60,37.00
2019-08-27 18:00, 0.61,5.1,1.03,70.60,35.00
2019-08-27 19:00, 0.60,2.7,1.06,58.60,37.00
2019-08-27 20:00, 0.60,2.6,0.99,58.60,39.00
2019-08-27 21:00, 0.64,3.6,1.07,49.60,36.00
2019-08-27 22:00, 0.72,2.9,1.36,45.60,34.00
2019-08-27 23:00, 0.71,3.6,1.13,47.60,36.00
2019-08-28 00:00, 0.69,4.3,1.13,53.60,38.00
2019-08-28 01:00, 0.68,5.0,0.98,58.60,38.00
2019-08-28 02:00, 0.70,5.3,1.16,62.60,39.00
2019-08-28 03:00, 0.74,5.1,1.35,66.60,39.00
2019-08-28 04:00, 0.75,3.1,1.13,62.60,40.00
2019-08-28 05:00, 0.82,4.7,1.28,66.60,37.00
2019-08-28 06:00, 0.82,5.6,1.29,75.60,40.00
2019-08-28 07:00, 0.74,5.6,1.14,72.60,44.00
2019-08-28 08:00, 0.78,5.7,1.26,68.60,41.00
2019-08-28 09:00, 0.94,6.1,1.58,78.60,36.00
2019-08-28 10:00, 0.85,6.1,1.47,71.60,39.00
2019-08-28 11:00, 0.89,6.1,1.63,66.60,37.00
2019-08-28 12:00, 0.86,5.4,1.48,64.60,38.00
2019-08-28 13:00, 1.02,5.7,1.65,69.60,35.00
2019-08-28 14:00, 0.93,5.6,1.56,69.60,37.00
2019-08-28 15:00, 0.97,6.3,1.56,78.60,34.00
2019-08-28 16:00, 0.87,6.7,1.32,80.60,36.00
2019-08-28 17:00, 0.87,7.1,1.29,77.60,37.00
2019-08-28 18:00, 0.95,6.9,1.47,71.60,35.00
2019-08-28 19:00, 1.26,10.0,2.05,81.60,28.00
2019-08-28 20:00, 1.09,9.1,1.62,37.60,32.00
2019-08-28 21:00, 1.16,7.7,1.72,55.60,36.00
2019-08-28 22:00, 1.06,8.0,1.91,140.60,35.00
2019-08-28 23:00, 0.92,7.1,1.58,143.60,35.00
2019-08-29 00:00, 0.99,7.1,1.54,130.60,34.00
2019-08-29 01:00, 0.94,6.9,1.33,135.60,37.00
2019-08-29 02:00, 0.99,6.3,1.50,150.60,34.00
2019-08-29 03:00, 1.00,5.7,1.86,145.60,36.00
2019-08-29 04:00, 0.93,8.0,1.59,145.60,34.00
2019-08-29 05:00, 0.97,6.9,1.61,141.60,36.00
2019-08-29 06:00, 0.84,7.7,1.34,128.60,43.00
2019-08-29 07:00, 0.75,7.4,1.26,144.60,40.00
2019-08-29 08:00, 0.79,6.1,1.26,115.60,39.00
2019-08-29 09:00, 0.76,5.9,1.13,117.60,43.00
2019-08-29 10:00, 0.62,6.5,1.01,107.60,45.00
2019-08-29 11:00, 0.61,6.7,1.07,112.60,41.00
2019-08-29 12:00, 0.68,7.1,1.26,113.60,39.00
2019-08-29 13:00, 0.68,7.1,1.00,119.60,40.00
2019-08-29 14:00, 0.66,6.7,1.10,115.60,38.00
2019-08-29 15:00, 0.69,5.0,1.34,111.60,38.00
2019-08-29 16:00, 0.80,6.1,1.39,108.60,36.00
2019-08-29 17:00, 0.74,11.1,1.17,106.60,38.00
2019-08-29 18:00, 0.82,11.1,1.91,98.60,35.00
2019-08-29 19:00, 0.83,10.5,1.48,102.60,34.00
2019-08-29 20:00, 0.84,11.1,1.81,25.60,47.00
2019-08-29 21:00, 0.71,10.5,1.16,27.60,44.00
2019-08-29 22:00, 0.58,10.5,1.00,67.60,36.00
2019-08-29 23:00, 0.59,10.0,1.00,65.60,33.00
2019-08-30 00:00, 0.52,10.5,0.83,71.60,39.00
2019-08-30 01:00, 0.55,11.1,0.93,64.60,36.00
2019-08-30 02:00, 0.54,10.5,0.82,54.60,39.00
2019-08-30 03:00, 0.57,10.5,0.92,59.60,40.00
2019-08-30 04:00, 0.58,10.5,1.02,55.60,36.00
2019-08-30 05:00, 0.50,10.5,0.78,52.60,38.00
2019-08-30 06:00, 0.54,10.5,0.75,66.60,38.00
2019-08-30 07:00, 0.57,10.0,0.92,66.60,41.00
2019-08-30 08:00, 0.52,10.5,0.86,69.60,42.00
2019-08-30 09:00, 0.50,5.1,0.79,61.60,43.00
2019-08-30 10:00, 0.48,10.0,0.87,44.60,44.00
2019-08-30 11:00, 0.49,10.5,0.88,53.60,42.00
2019-08-30 12:00, 0.46,9.5,0.74,54.60,42.00
2019-08-30 13:00, 0.45,9.5,0.71,60.60,40.00
2019-08-30 14:00, 0.48,10.0,0.77,58.60,39.00
2019-08-30 15:00, 0.47,9.5,0.83,64.60,38.00
2019-08-30 16:00, 0.48,11.1,0.85,70.60,39.00
2019-08-30 17:00, 0.55,9.1,0.85,62.60,38.00
2019-08-30 18:00, 0.54,10.5,0.91,63.60,36.00
2019-08-30 19:00, 0.54,9.1,0.81,57.60,33.00
2019-08-30 20:00, 0.51,10.0,0.80,75.60,34.00
2019-08-30 21:00, 0.55,8.7,0.89,69.60,39.00
2019-08-30 22:00, 0.62,10.0,0.97,63.60,39.00
2019-08-30 23:00, 0.56,10.0,0.93,62.60,40.00
2019-08-31 00:00, 0.54,10.0,0.76,70.60,40.00
2019-08-31 01:00, 0.54,10.0,0.99,65.60,35.00
2019-08-31 02:00, 0.53,9.1,0.85,64.60,35.00
2019-08-31 03:00, 0.53,9.5,0.84,53.60,32.00
2019-08-31 04:00, 0.52,9.1,0.82,43.60,33.00
2019-08-31 05:00, 0.52,8.7,0.83,47.60,35.00
2019-08-31 06:00, 0.58,8.3,0.86,56.60,34.00
2019-08-31 07:00, 0.56,8.7,0.98,61.60,33.00
2019-08-31 08:00, 0.60,9.5,0.91,60.60,33.00
2019-08-31 09:00, 0.63,12.5,1.02,60.60,38.00
2019-08-31 10:00, 0.64,10.0,1.02,54.60,38.00
2019-08-31 11:00, 0.70,10.0,1.22,57.60,38.00
2019-08-31 12:00, 0.65,12.5,1.04,44.60,40.00
2019-08-31 13:00, 0.61,8.3,1.08,50.60,42.00
2019-08-31 14:00, 0.61,11.8,0.99,44.60,39.00
2019-08-31 15:00, 0.57,12.5,0.85,40.60,44.00
2019-08-31 16:00, 0.54,10.0,0.86,50.60,43.00
2019-08-31 17:00, 0.56,11.8,0.79,48.60,44.00
2019-08-31 18:00, 0.54,11.8,1.09,56.60,35.00
2019-08-31 19:00, 0.55,11.8,0.84,57.60,38.00
2019-08-31 20:00, 0.53,11.8,0.87,62.60,36.00
2019-08-31 21:00, 0.47,10.5,0.74,63.60,41.00
2019-08-31 22:00, 0.51,11.8,0.91,45.60,37.00
2019-08-31 23:00, 0.50,11.8,0.81,51.60,40.00
2019-09-01 00:00, 0.48,10.0,0.79,47.60,38.00
2019-09-01 01:00, 0.50,12.5,0.86,44.60,38.00
2019-09-01 02:00, 0.48,8.7,0.79,45.60,38.00
2019-09-01 03:00, 0.43,11.8,0.95,46.60,39.00
2019-09-01 04:00, 0.47,9.1,0.74,44.60,34.00
2019-09-01 05:00, 0.45,9.5,0.75,41.60,36.00
2019-09-01 06:00, 0.43,10.5,0.78,46.60,38.00
2019-09-01 07:00, 0.45,12.5,0.90,46.60,37.00
2019-09-01 08:00, 0.44,8.7,0.89,53.60,36.00
2019-09-01 09:00, 0.46,11.1,0.79,66.60,42.00
2019-09-01 10:00, 0.49,11.1,0.71,54.60,40.00
2019-09-01 11:00, 0.44,11.1,0.77,46.60,41.00
2019-09-01 12:00, 0.44,12.5,0.68,48.60,41.00
2019-09-01 13:00, 0.49,11.1,0.84,40.60,41.00
2019-09-01 14:00, 0.47,12.5,0.71,41.60,41.00
2019-09-01 15:00, 0.47,11.8,0.80,37.60,43.00
2019-09-01 16:00, 0.46,11.8,0.79,39.60,41.00
2019-09-01 17:00, 0.42,11.8,0.83,39.60,43.00
2019-09-01 18:00, 0.45,11.8,0.90,37.60,37.00
2019-09-01 19:00, 0.48,12.5,0.79,38.60,34.00
2019-09-01 20:00, 0.46,12.5,0.84,44.60,37.00
2019-09-01 21:00, 0.48,11.1,0.92,50.60,37.00
2019-09-01 22:00, 0.47,12.5,0.83,39.60,37.00
2019-09-01 23:00, 0.47,11.8,0.89,40.60,45.00
2019-09-02 00:00, 0.50,11.8,0.84,34.60,38.00
2019-09-02 01:00, 0.49,12.5,0.83,28.60,34.00
2019-09-02 02:00, 0.46,12.5,0.66,33.60,37.00
2019-09-02 03:00, 0.46,10.5,0.73,41.60,36.00
2019-09-02 04:00, 0.48,12.5,0.83,46.60,38.00
2019-09-02 05:00, 0.49,11.8,0.79,48.60,39.00
2019-09-02 06:00, 0.52,9.5,0.75,53.60,38.00
2019-09-02 07:00, 0.49,8.3,0.84,58.60,39.00
2019-09-02 08:00, 0.52,12.5,0.83,51.60,36.00
2019-09-02 09:00, 0.51,12.5,0.91,48.60,40.00
2019-09-02 10:00, 0.49,8.7,0.90,53.60,37.00
2019-09-02 11:00, 0.46,13.3,0.70,46.60,36.00
2019-09-02 12:00, 0.49,12.5,0.73,40.60,36.00
2019-09-02 13:00, 0.45,8.7,0.74,39.60,36.00
2019-09-02 14:00, 0.46,12.5,0.70,39.60,41.00
2019-09-02 15:00, 0.48,12.5,1.04,40.60,38.00
2019-09-02 16:00, 0.46,13.3,0.71,55.60,40.00
2019-09-02 17:00, 0.50,11.8,0.83,47.60,43.00
2019-09-02 18:00, 0.45,12.5,0.74,49.60,41.00
2019-09-02 19:00, 0.48,12.5,0.77,57.60,40.00
2019-09-02 20:00, 0.52,12.5,0.81,59.60,37.00
2019-09-02 21:00, 0.56,8.7,0.85,54.60,37.00
2019-09-02 22:00, 0.51,12.5,0.79,47.60,39.00
2019-09-02 23:00,,0.5,,347.52,63.00
2019-09-03 00:00, 0.51,11.8,1.13,44.60,36.00
2019-09-03 01:00, 0.58,8.0,0.89,54.60,34.00
2019-09-03 02:00, 0.52,10.5,0.89,57.60,35.00
2019-09-03 03:00, 0.52,12.5,0.93,47.60,36.00
2019-09-03 04:00, 0.51,11.8,0.86,39.60,33.00
2019-09-03 05:00, 0.50,12.5,0.83,52.60,35.00
2019-09-03 06:00, 0.50,8.0,0.73,59.60,39.00
2019-09-03 07:00, 0.56,8.0,0.84,68.60,37.00
2019-09-03 08:00, 0.57,11.8,0.96,66.60,37.00
2019-09-03 09:00, 0.58,11.8,0.94,66.60,36.00
2019-09-03 10:00, 0.61,3.6,0.83,65.60,36.00
2019-09-03 11:00, 0.58,3.4,1.01,64.60,37.00
2019-09-03 12:00, 0.59,7.7,0.93,60.60,37.00
2019-09-03 13:00, 0.57,11.8,1.03,55.60,38.00
2019-09-03 14:00, 0.58,7.7,1.02,56.60,39.00
2019-09-03 15:00, 0.58,10.5,0.95,61.60,39.00
2019-09-03 16:00, 0.63,6.9,1.05,68.60,38.00
2019-09-03 17:00, 0.75,3.3,1.37,73.60,33.00
2019-09-03 18:00, 0.68,3.4,1.29,80.60,36.00
2019-09-03 19:00, 0.71,4.8,1.11,86.60,34.00
2019-09-03 20:00, 0.81,4.4,1.41,84.60,29.00
2019-09-03 21:00, 0.72,4.4,1.23,85.60,32.00
2019-09-03 22:00, 0.79,4.7,1.41,86.60,32.00
2019-09-03 23:00, 0.83,5.0,1.30,87.60,36.00
2019-09-04 00:00, 0.80,5.3,1.11,85.60,34.00
2019-09-04 01:00, 0.84,5.4,1.48,86.60,34.00
2019-09-04 02:00, 0.81,3.6,1.48,80.60,37.00
2019-09-04 03:00, 0.79,4.8,1.34,81.60,38.00
2019-09-04 04:00, 0.81,3.8,1.41,85.60,35.00
2019-09-04 05:00, 0.85,5.4,1.51,89.60,33.00
2019-09-04 06:00, 0.89,4.4,1.58,89.60,33.00
2019-09-04 07:00, 0.83,4.8,1.40,89.60,32.00
2019-09-04 08:00, 0.82,5.4,1.41,92.60,33.00
2019-09-04 09:00, 0.95,4.9,1.51,91.60,29.00
2019-09-04 10:00, 0.92,4.3,1.58,89.60,29.00
2019-09-04 11:00, 0.86,4.7,1.46,88.60,34.00
2019-09-04 12:00, 0.86,4.0,1.28,82.60,34.00
2019-09-04 13:00, 0.84,6.1,1.53,81.60,36.00
2019-09-04 14:00, 0.80,5.9,1.17,76.60,36.00
2019-09-04 15:00, 0.80,5.6,1.20,72.60,38.00
2019-09-04 16:00, 0.72,5.0,1.18,73.60,37.00
2019-09-04 17:00, 0.64,5.6,1.02,68.60,41.00
2019-09-04 18:00, 0.69,6.1,1.33,67.60,40.00
2019-09-04 19:00, 0.63,5.4,1.02,60.60,41.00
2019-09-04 20:00, 0.66,6.5,1.06,59.60,41.00
2019-09-04 21:00, 0.62,5.9,0.90,58.60,40.00
2019-09-04 22:00, 0.62,6.7,1.02,62.60,40.00
2019-09-04 23:00, 0.72,5.9,1.16,79.60,36.00
2019-09-05 00:00, 0.67,5.6,1.01,75.60,39.00
2019-09-05 01:00, 0.66,5.7,1.04,70.60,41.00
2019-09-05 02:00, 0.67,5.6,1.15,59.60,41.00
2019-09-05 03:00, 0.67,4.9,0.99,58.60,43.00
2019-09-05 04:00, 0.63,5.6,1.01,61.60,41.00
2019-09-05 05:00, 0.72,4.5,1.33,55.60,38.00
2019-09-05 06:00, 0.71,5.7,1.21,58.60,39.00
2019-09-05 07:00, 0.75,5.7,1.31,55.60,38.00
2019-09-05 08:00, 0.70,4.9,1.06,56.60,39.00
2019-09-05 09:00, 0.71,5.1,1.10,54.60,40.00
2019-09-05 10:00, 0.68,5.3,1.13,55.60,41.00
2019-09-05 11:00, 0.67,5.7,1.25,55.60,43.00
2019-09-05 12:00, 0.64,5.4,1.06,53.60,43.00
2019-09-05 13:00, 0.64,5.0,1.00,59.60,43.00
2019-09-05 14:00, 0.67,5.4,1.01,57.60,44.00
2019-09-05 15:00, 0.67,5.6,1.09,54.60,46.00
2019-09-05 16:00, 0.70,5.1,1.14,54.60,44.00
2019-09-05 17:00, 0.70,5.6,1.19,47.60,43.00
2019-09-05 18:00, 0.69,5.1,1.06,40.60,41.00
2019-09-05 19:00, 0.67,5.1,1.06,39.60,42.00
2019-09-05 20:00, 0.64,5.7,1.05,43.60,40.00
2019-09-05 21:00, 0.53,4.9,0.91,41.60,42.00
2019-09-05 22:00, 0.59,5.1,0.98,48.60,41.00
2019-09-05 23:00, 0.59,4.8,0.96,46.60,38.00
2019-09-06 00:00, 0.59,5.3,0.89,54.60,41.00
2019-09-06 01:00, 0.57,5.4,1.04,61.60,41.00
2019-09-06 02:00, 0.59,5.4,1.09,63.60,40.00
2019-09-06 03:00, 0.58,5.4,0.90,65.60,39.00
2019-09-06 04:00, 0.55,5.4,0.88,56.60,38.00
2019-09-06 05:00, 0.56,4.5,1.05,51.60,40.00
2019-09-06 06:00, 0.54,5.9,0.91,49.60,42.00
2019-09-06 07:00, 0.54,5.3,0.89,49.60,39.00
2019-09-06 08:00, 0.50,12.5,0.78,49.60,41.00
2019-09-06 09:00, 0.51,5.6,0.88,45.60,39.00
2019-09-06 10:00, 0.50,5.6,0.76,42.60,37.00
2019-09-06 11:00, 0.49,5.7,0.81,41.60,37.00
2019-09-06 12:00, 0.43,5.1,0.81,36.60,36.00
2019-09-06 13:00, 0.47,5.0,0.80,53.60,39.00
2019-09-06 14:00, 0.50,5.6,0.77,53.60,38.00
2019-09-06 15:00, 0.45,5.4,0.68,43.60,42.00
2019-09-06 16:00, 0.47,4.9,0.73,48.60,38.00
2019-09-06 17:00, 0.49,5.4,0.88,46.60,36.00
2019-09-06 18:00, 0.49,5.0,0.78,46.60,39.00
2019-09-06 19:00, 0.50,12.5,0.86,46.60,40.00
2019-09-06 20:00, 0.47,4.4,0.77,47.60,45.00
2019-09-06 21:00, 0.47,12.5,0.72,34.60,41.00
2019-09-06 22:00, 0.49,12.5,0.76,33.60,43.00
2019-09-06 23:00, 0.43,12.5,0.76,29.60,41.00
2019-09-07 00:00, 0.45,12.5,0.69,47.60,38.00
2019-09-07 01:00, 0.42,4.8,0.69,50.60,39.00
2019-09-07 02:00, 0.40,11.8,0.72,47.60,38.00
2019-09-07 03:00, 0.39,11.8,0.62,43.60,40.00
2019-09-07 04:00, 0.38,11.8,0.58,38.60,43.00
2019-09-07 05:00, 0.37,10.5,0.58,29.60,42.00
2019-09-07 06:00, 0.39,11.8,0.68,23.60,42.00
2019-09-07 07:00, 0.41,10.5,0.64,23.60,37.00
2019-09-07 08:00, 0.44,12.5,0.69,21.60,37.00
2019-09-07 09:00, 0.44,11.1,0.62,22.60,36.00
2019-09-07 10:00, 0.43,10.5,0.60,29.60,38.00
2019-09-07 11:00, 0.40,10.5,0.66,25.60,37.00
2019-09-07 12:00, 0.45,12.5,0.64,21.60,37.00
2019-09-07 13:00, 0.45,12.5,0.70,20.60,37.00
2019-09-07 14:00, 0.46,13.3,0.79,19.60,46.00
2019-09-07 15:00, 0.51,13.3,0.84,13.60,36.00
2019-09-07 16:00, 0.46,11.8,0.82,18.60,40.00
2019-09-07 17:00, 0.51,13.3,0.76,13.60,32.00
2019-09-07 18:00, 0.51,12.5,0.96,11.60,34.00
2019-09-07 19:00, 0.52,12.5,0.83,11.60,34.00
2019-09-07 20:00, 0.54,12.5,0.89,7.60,31.00
2019-09-07 21:00, 0.46,12.5,0.73,10.60,35.00
2019-09-07 22:00, 0.51,11.8,0.87,3.60,34.00
2019-09-07 23:00, 0.53,12.5,0.83,6.60,41.00
2019-09-08 00:00, 0.55,11.8,0.89,4.60,32.00
2019-09-08 01:00, 0.53,12.5,0.81,2.60,34.00
2019-09-08 02:00, 0.58,12.5,0.94,0.60,32.00
2019-09-08 03:00, 0.51,12.5,0.87,8.60,34.00
2019-09-08 04:00, 0.51,12.5,0.82,4.60,35.00
2019-09-08 05:00, 0.50,12.5,0.82,3.60,34.00
2019-09-08 06:00, 0.50,12.5,0.93,5.60,33.00
2019-09-08 07:00, 0.52,12.5,0.91,5.60,34.00
2019-09-08 08:00, 0.58,12.5,0.97,356.60,30.00
2019-09-08 09:00, 0.55,11.8,0.90,6.60,38.00
2019-09-08 10:00, 0.56,12.5,0.92,2.60,30.00
2019-09-08 11:00, 0.52,11.8,0.79,10.60,32.00
2019-09-08 12:00, 0.48,11.8,0.83,12.60,38.00
2019-09-08 13:00, 0.50,11.1,0.79,7.60,39.00
2019-09-08 14:00, 0.48,11.8,0.82,13.60,44.00
2019-09-08 15:00, 0.51,11.1,0.79,6.60,33.00
2019-09-08 16:00, 0.53,11.1,0.79,3.60,36.00
2019-09-08 17:00, 0.55,11.1,0.78,2.60,32.00
2019-09-08 18:00, 0.60,11.1,0.96,5.60,30.00
2019-09-08 19:00, 0.52,10.5,0.85,1.60,35.00
2019-09-08 20:00, 0.53,10.5,0.87,356.60,36.00
2019-09-08 21:00, 0.53,15.4,0.86,358.60,36.00
2019-09-08 22:00, 0.65,13.3,1.26,356.60,31.00
2019-09-08 23:00, 0.54,11.8,0.89,5.60,41.00
2019-09-09 00:00, 0.66,14.3,1.11,356.60,31.00
2019-09-09 01:00, 0.73,14.3,1.21,5.60,29.00
2019-09-09 02:00, 0.90,14.3,1.39,351.60,21.00
2019-09-09 03:00, 0.89,14.3,1.60,354.60,26.00
2019-09-09 04:00, 0.99,14.3,1.33,354.60,22.00
2019-09-09 05:00, 1.23,13.3,1.72,355.60,19.00
2019-09-09 06:00, 0.78,13.3,1.13,359.60,28.00
2019-09-09 07:00, 0.99,13.3,2.17,346.60,26.00
2019-09-09 08:00, 0.88,13.3,1.49,343.60,29.00
2019-09-09 09:00, 1.02,13.3,1.49,345.60,28.00
2019-09-09 10:00, 0.94,13.3,1.40,347.60,30.00
2019-09-09 11:00, 0.88,13.3,1.37,344.60,32.00
2019-09-09 12:00, 0.80,13.3,1.26,354.60,30.00
2019-09-09 13:00, 0.73,12.5,1.54,356.60,30.00
2019-09-09 14:00, 0.80,13.3,1.06,358.60,34.00
2019-09-09 15:00, 0.69,12.5,1.12,0.60,33.00
2019-09-09 16:00, 0.73,13.3,1.19,2.60,33.00
2019-09-09 17:00, 0.71,13.3,0.95,1.60,35.00
2019-09-09 18:00, 0.93,12.5,1.48,354.60,26.00
2019-09-09 19:00, 0.80,12.5,1.17,0.60,30.00
2019-09-09 20:00, 0.76,13.3,1.28,353.60,33.00
2019-09-09 21:00, 0.83,12.5,1.17,3.60,27.00
2019-09-09 22:00, 0.87,12.5,1.24,355.60,27.00
2019-09-09 23:00, 0.89,12.5,1.28,2.60,29.00
2019-09-10 00:00, 0.61,12.5,0.98,5.60,37.00
2019-09-10 01:00, 0.70,11.8,1.21,4.60,32.00
2019-09-10 02:00, 0.91,12.5,1.35,1.60,27.00
2019-09-10 03:00, 0.83,12.5,1.22,3.60,33.00
2019-09-10 04:00, 0.83,11.8,1.29,0.60,28.00
2019-09-10 05:00, 0.90,11.8,1.39,3.60,28.00
2019-09-10 06:00, 0.93,12.5,1.56,4.60,25.00
2019-09-10 07:00, 0.88,12.5,1.93,1.60,28.00
2019-09-10 08:00, 1.03,13.3,1.76,2.60,25.00
2019-09-10 09:00, 0.80,12.5,1.47,4.60,31.00
2019-09-10 10:00, 0.82,11.1,1.41,8.60,31.00
2019-09-10 11:00, 0.79,11.1,1.17,8.60,32.00
2019-09-10 12:00, 0.81,11.1,1.26,9.60,34.00
2019-09-10 13:00, 0.76,12.5,1.43,8.60,33.00
2019-09-10 14:00, 0.81,12.5,1.33,11.60,35.00
2019-09-10 15:00, 0.72,11.8,1.24,10.60,33.00
2019-09-10 16:00, 0.76,11.8,1.50,10.60,33.00
2019-09-10 17:00, 0.73,10.5,1.17,18.60,33.00
2019-09-10 18:00, 0.82,12.5,1.35,10.60,28.00
2019-09-10 19:00, 0.86,11.8,1.55,9.60,30.00
2019-09-10 20:00, 0.76,11.8,1.39,18.60,33.00
2019-09-10 21:00, 0.80,13.3,1.65,8.60,32.00
2019-09-10 22:00, 0.84,12.5,1.57,8.60,34.00
2019-09-11 00:00, 0.77,10.5,1.19,11.60,35.00
2019-09-11 01:00, 0.74,12.5,1.38,12.60,35.00
2019-09-11 02:00, 0.76,13.3,1.35,17.60,33.00
2019-09-11 03:00, 0.73,13.3,1.19,19.60,32.00
2019-09-11 04:00, 0.70,12.5,1.25,18.60,34.00
2019-09-11 05:00, 0.75,10.5,1.41,18.60,32.00
2019-09-11 06:00, 0.69,11.8,1.17,24.60,33.00
2019-09-11 07:00, 0.70,10.0,1.07,25.60,34.00
2019-09-11 08:00, 0.74,10.0,1.13,12.60,32.00
2019-09-11 09:00, 0.71,10.5,1.19,20.60,33.00
2019-09-11 10:00, 0.68,11.1,1.39,20.60,36.00
2019-09-11 11:00, 0.65,9.5,1.12,16.60,38.00
2019-09-11 12:00, 0.63,10.0,0.99,18.60,36.00
2019-09-11 13:00, 0.64,11.1,1.00,17.60,35.00
2019-09-11 14:00, 0.61,10.0,0.91,19.60,41.00
2019-09-11 15:00, 0.63,9.1,1.07,26.60,37.00
2019-09-11 16:00, 0.59,9.5,1.04,25.60,37.00
2019-09-11 17:00, 0.64,10.5,1.12,23.60,36.00
2019-09-11 18:00, 0.57,9.5,1.19,30.60,32.00
2019-09-11 19:00, 0.61,9.1,1.06,26.60,34.00
2019-09-11 20:00, 0.57,8.7,0.92,26.60,35.00
2019-09-11 21:00, 0.56,8.7,0.82,24.60,36.00
2019-09-11 22:00, 0.55,10.0,0.85,20.60,37.00
2019-09-11 23:00, 0.52,8.0,0.76,27.60,39.00
2019-09-12 00:00, 0.53,10.5,0.86,23.60,38.00
2019-09-12 01:00, 0.57,10.0,0.96,22.60,34.00
2019-09-12 02:00, 0.54,10.0,0.96,25.60,36.00
2019-09-12 03:00, 0.52,10.0,1.06,39.60,40.00
2019-09-12 04:00, 0.57,9.5,0.97,30.60,32.00
2019-09-12 05:00, 0.51,9.5,0.81,31.60,34.00
2019-09-12 06:00, 0.55,10.0,1.07,29.60,35.00
2019-09-12 07:00, 0.51,9.5,0.91,26.60,33.00
2019-09-12 08:00, 0.53,8.0,0.94,26.60,34.00
2019-09-12 09:00, 0.57,9.5,0.96,27.60,32.00
2019-09-12 10:00, 0.54,9.1,0.96,23.60,31.00
2019-09-12 11:00, 0.51,9.1,0.78,26.60,35.00
2019-09-12 12:00, 0.50,9.1,0.78,25.60,36.00
2019-09-12 13:00, 0.51,9.1,0.78,29.60,34.00
2019-09-12 14:00, 0.49,9.1,0.82,34.60,43.00
2019-09-12 15:00, 0.48,9.1,0.74,34.60,37.00
2019-09-12 16:00, 0.51,9.1,0.84,37.60,39.00
2019-09-12 17:00, 0.46,8.7,0.72,45.60,35.00
2019-09-12 18:00, 0.50,9.1,0.89,47.60,34.00
2019-09-12 19:00, 0.48,9.1,0.91,54.60,38.00
2019-09-12 20:00, 0.51,8.7,0.93,43.60,34.00
2019-09-12 21:00, 0.47,9.5,0.91,39.60,40.00
2019-09-12 22:00, 0.46,8.3,0.83,52.60,41.00
2019-09-12 23:00, 0.51,8.3,0.87,54.60,36.00
2019-09-13 00:00, 0.53,8.3,0.84,53.60,34.00
2019-09-13 01:00, 0.58,8.7,0.97,63.60,34.00
2019-09-13 02:00, 0.60,3.2,1.05,68.60,32.00
2019-09-13 03:00, 0.60,3.4,1.03,74.60,31.00
2019-09-13 04:00, 0.58,3.7,0.98,71.60,32.00
2019-09-13 05:00, 0.57,3.6,0.86,70.60,33.00
2019-09-13 06:00, 0.54,7.7,0.78,65.60,34.00
2019-09-13 07:00, 0.51,7.7,0.79,62.60,34.00
2019-09-13 08:00, 0.50,8.3,0.77,63.60,36.00
2019-09-13 09:00, 0.47,7.7,0.73,56.60,38.00
2019-09-13 10:00, 0.54,7.4,0.99,64.60,35.00
2019-09-13 11:00, 0.49,9.5,0.77,61.60,38.00
2019-09-13 12:00, 0.52,9.5,0.84,59.60,39.00
2019-09-13 13:00, 0.50,9.1,0.80,63.60,37.00
2019-09-13 14:00, 0.53,9.1,0.88,77.60,42.00
2019-09-13 15:00,,0.5,8.00,347.47,82.00
2019-09-13 16:00, 0.58,4.3,0.93,74.60,36.00
2019-09-13 17:00, 0.58,4.1,0.96,83.60,36.00
2019-09-13 18:00, 0.58,9.1,0.90,77.60,34.00
2019-09-13 19:00, 0.57,4.0,0.86,79.60,32.00
2019-09-13 20:00, 0.56,8.7,0.82,79.60,37.00
2019-09-13 21:00, 0.54,4.3,0.87,81.60,38.00
2019-09-13 22:00, 0.53,10.0,0.86,68.60,36.00
2019-09-13 23:00, 0.52,10.0,0.88,68.60,36.00
2019-09-14 00:00, 0.55,8.0,0.90,74.60,35.00
2019-09-14 01:00, 0.56,10.5,0.87,72.60,35.00
2019-09-14 02:00, 0.59,3.1,0.94,76.60,32.00
2019-09-14 03:00, 0.58,11.1,0.96,74.60,32.00
2019-09-14 04:00, 0.58,11.1,0.90,74.60,36.00
2019-09-14 05:00, 0.62,10.0,1.00,77.60,35.00
2019-09-14 06:00, 0.68,3.7,1.20,79.60,32.00
2019-09-14 07:00, 0.64,3.9,1.05,79.60,33.00
2019-09-14 08:00, 0.71,4.3,1.34,81.60,33.00
2019-09-14 09:00, 0.80,4.5,1.27,79.60,35.00
2019-09-14 10:00, 0.74,10.0,1.13,78.60,34.00
2019-09-14 11:00, 0.74,4.3,1.30,73.60,36.00
2019-09-14 12:00, 0.77,10.5,1.25,73.60,35.00
2019-09-14 13:00, 0.71,10.5,1.07,73.60,36.00
2019-09-14 14:00, 0.75,3.4,1.11,74.60,34.00